Home   Weather   Lublin   Past weeks

Flag for Poland Past Weather in Lublin, Poland — Yesterday and Last 2 Weeks

40 °F


Feels Like: 40 °F
Forecast: 47 / 52 °F
Wind: 1 mph from Southwest

Location: Lublin Radawiec

Current Time: Oct 23, 2016 at 3:35:00 AM

Latest Report: Oct 23, 2016 at 2:00 AM

Visibility: 2 mi

Pressure: 30.16 "Hg

Humidity: 96%

Dew Point: 39 °F

Location of LublinLocation

Past Weather in Lublin — Graph


Lublin Temperature Yesterday

Maximum temperature yesterday: 44 °F (at 10:00 PM)
Minimum temperature yesterday: 41 °F (at 8:00 AM)
Average temperature yesterday: 42 °F

High & Low Weather Summary for the Past Weeks

High51 °F (Oct 9, 3:00 PM)99% (Oct 9, 1:00 AM)30.54 "Hg (Oct 9, 1:00 AM)
Low30 °F (Oct 14, 7:00 AM)57% (Oct 14, 2:00 PM)29.97 "Hg (Oct 8, 6:00 AM)
Average42 °F89%30.20 "Hg
* Reported Oct 8 2:00 AM — Oct 23 2:00 AM, Lublin, Weather by CustomWeather, © 2016

Note: Actual official high and low records may vary slightly from our data, if they occured in-between our weather recording intervals... More about our weather records


Lublin Weather History for the Previous 24 Hours

Scroll right to see more
Time TempWeatherWind HumidityBarometerVisibility
2:00 AM
Sun, Oct 23
40 °FFog.1 mph96%30.16 "Hg2 mi
1:00 AM43 °FLow clouds.1 mph95%30.14 "Hg2 mi
12:00 AM43 °FDrizzle. Low clouds.1 mph98%30.12 "Hg2 mi
11:00 PM
Sat, Oct 22
44 °FFog.1 mph98%30.11 "Hg2 mi
10:00 PM44 °FFog.1 mph98%30.10 "Hg2 mi
9:00 PM44 °FLow clouds.No wind98%30.08 "Hg2 mi
8:00 PM44 °FDrizzle. Low clouds.No wind98%30.06 "Hg2 mi
7:00 PM44 °FDrizzle. Low clouds.2 mph98%30.05 "Hg2 mi
6:00 PM44 °FFog.1 mph98%30.03 "Hg2 mi
5:00 PM44 °FSprinkles. Low clouds.1 mph98%30.02 "Hg2 mi
4:00 PM43 °FSprinkles. Low clouds.1 mph97%30.00 "Hg6 mi
3:00 PM43 °FSprinkles. Low clouds.1 mph97%29.99 "Hg6 mi
2:00 PM42 °FLight rain. Low clouds.1 mph97%29.99 "Hg4 mi
1:00 PM42 °FLight rain. Low clouds.2 mph97%30.00 "Hg4 mi
12:00 PM41 °FLight rain. Low clouds.2 mph97%29.99 "Hg4 mi
11:00 AM41 °FLight rain. Low clouds.2 mph97%29.99 "Hg4 mi
10:00 AM41 °FLight rain. Low clouds.2 mph97%29.99 "Hg2 mi
9:00 AM41 °FLight rain. Low clouds.2 mph97%30.00 "Hg2 mi
8:00 AM41 °FLight rain. Low clouds.3 mph97%30.00 "Hg2 mi
7:00 AM41 °FLight rain. Low clouds.3 mph97%29.98 "Hg2 mi
6:00 AM41 °FLight rain. Low clouds.5 mph97%29.98 "Hg2 mi
5:00 AM41 °FLight rain. Low clouds.5 mph97%29.99 "Hg2 mi
4:00 AM42 °FDrizzle. Low clouds.3 mph97%29.99 "Hg2 mi
3:00 AM42 °FDrizzle. Low clouds.6 mph96%30.01 "Hg2 mi
Weather by CustomWeather, © 2016

See weather overviewHow to use our weather pages